Home   Weather   Germany   Bonn   Past weeks
Flag for Germany

Past Weather in Bonn, North Rhine-Westphalia, Germany — Yesterday and Last 2 Weeks

Currently: 59 °F. Passing clouds. (Weather station: Koeln / Bonn, Germany). See more current weather

Past Weather in Bonn — Graph

°F

Bonn Temperature Yesterday

Maximum temperature yesterday: 81 °F (at 3:20 pm)
Minimum temperature yesterday: 64 °F (at 11:20 pm)
Average temperature yesterday: 73 °F

High & Low Weather Summary for the Past Weeks

 TemperatureHumidityPressure
High95 °F (Aug 4, 12:20 pm)100% (Aug 5, 6:20 am)30.36 "Hg (Aug 5, 6:20 am)
Low45 °F (Aug 7, 5:20 am)18% (Aug 12, 3:20 pm)29.65 "Hg (Aug 14, 11:20 pm)
Average73 °F53%30.04 "Hg
* Reported Aug 3 4:20 am — Aug 18 4:20 am, Bonn. Weather by CustomWeather, © 2022

Note: Actual official high and low records may vary slightly from our data, if they occured in-between our weather recording intervals... More about our weather records

Bonn Weather History for the Previous 24 Hours

Scroll right to see more
 ConditionsComfort  
Time TempWeatherWind HumidityBarometerVisibility
4:20 am
Thu, Aug 18
59 °FFog.3 mph94%29.92 "HgN/A
3:50 am59 °FClear.2 mph94%29.92 "Hg10 mi
3:20 am61 °FClear.3 mph94%29.92 "Hg10 mi
2:50 am61 °FClear.2 mph88%29.92 "Hg10 mi
1:20 am63 °FClear.3 mph88%29.92 "Hg10 mi
12:50 am63 °FClear.2 mph88%29.92 "Hg10 mi
12:20 am64 °FClear.2 mph83%29.92 "Hg10 mi
11:50 pm
Wed, Aug 17
64 °FClear.2 mph83%29.89 "Hg10 mi
11:20 pm64 °FPassing clouds.5 mph83%29.89 "HgN/A
10:50 pm66 °FClear.3 mph78%29.89 "Hg10 mi
10:20 pm68 °FClear.5 mph78%29.89 "Hg10 mi
9:50 pm70 °FClear.6 mph73%29.89 "Hg10 mi
9:20 pm72 °FClear.7 mph69%29.89 "Hg10 mi
8:50 pm72 °FClear.6 mph69%29.86 "Hg10 mi
8:20 pm73 °FSunny.8 mph65%29.86 "Hg10 mi
7:50 pm77 °FSunny.9 mph57%29.86 "Hg10 mi
7:20 pm77 °FPassing clouds.9 mph57%29.83 "HgN/A
6:50 pm79 °FPassing clouds.9 mph54%29.83 "HgN/A
6:20 pm79 °FPassing clouds.8 mph54%29.86 "HgN/A
5:50 pm79 °FPassing clouds.9 mph54%29.83 "HgN/A
5:20 pm79 °FPassing clouds.7 mph54%29.86 "HgN/A
4:50 pm79 °FPassing clouds.12 mph54%29.86 "HgN/A
4:20 pm81 °FPassing clouds.9 mph51%29.86 "HgN/A
3:50 pm79 °FPassing clouds.6 mph51%29.86 "HgN/A
3:20 pm81 °FPassing clouds.9 mph48%29.86 "HgN/A
2:50 pm79 °FPassing clouds.7 mph51%29.86 "HgN/A
2:20 pm79 °FPassing clouds.9 mph51%29.86 "HgN/A
1:50 pm77 °FPassing clouds.6 mph54%29.86 "HgN/A
1:20 pm77 °FPassing clouds.6 mph54%29.86 "HgN/A
12:50 pm77 °FPassing clouds.8 mph54%29.86 "HgN/A
12:20 pm75 °FPassing clouds.9 mph57%29.86 "HgN/A
11:50 am73 °FSprinkles. Passing clouds.9 mph61%29.86 "HgN/A
10:50 am73 °FSunny.8 mph57%29.86 "Hg10 mi
10:20 am75 °FPassing clouds.3 mph54%29.83 "HgN/A
9:50 am75 °FPassing clouds.3 mph54%29.83 "HgN/A
9:20 am73 °FPassing clouds.5 mph53%29.83 "HgN/A
8:50 am72 °FPassing clouds.8 mph57%29.83 "HgN/A
8:20 am72 °FPassing clouds.5 mph57%29.80 "HgN/A
7:50 am70 °FPassing clouds.7 mph60%29.80 "HgN/A
7:20 am70 °FPassing clouds.6 mph60%29.80 "HgN/A
6:20 am68 °FPassing clouds.5 mph60%29.80 "HgN/A
5:50 am68 °FPassing clouds.5 mph60%29.80 "HgN/A
5:20 am68 °FClear.6 mph60%29.80 "Hg10 mi
Weather by CustomWeather, © 2022

See weather overview